Content
SEND FEEDBACK

Canada Flag

YELLOWKNIFE, NORTHWEST TERRITORIES


Home > North America > Canada > Northwest Territories
Elevation: 676 feet     Latitude: 62 28N     Longitude: 114 27W

WEATHER
 
SELECT A DAY
Number of Records: 209,779;   Date Range: 1/1/95 - 3/21/16
 
SHARE

PRINT THIS DATA

[ ← Previous Day ]
WEATHER ALMANAC - OCTOBER 14, 2013
[ Next Day → ]
[ °C ]   °F
Weather ElementAverageHighLow
Temperature37.9 °F46.4 °F (5:00 pm)30.2 °F (3:00 am)
Dewpoint35.5 °F40 °F (6:00 pm)30.2 °F (1:00 am)
Humidity90.8 %100 % (2:00 am)76 % (5:00 pm)
Barometer29.97 in30.18 in (12:00 am)29.77 in (10:00 pm)
Wind Speed9.5 mph18.4 mph (3:00 pm)
Wind Gust26.5 mph (4:00 pm)
Weather ElementAverage
Visibility15 mi
Wind DirectionS (174.6 °)

Weather ElementTotal
Precipitation---
Heating Degree Days26.7 (Base 65)
Averaged from 28 records on October 14, 2013
WEATHER CONDITIONS BREAKOUT
WIND DIRECTION BREAKOUT
WEATHER BY HOUR - OCTOBER 14, 2013
[ °C ]   °F
Local TimeTemperatureDewpointHumidityBarometerVisibilityWind DirectionWind SpeedGust SpeedPrecipitationEventsConditions
12:00 AM35.6 °F32.0 °F87 %30.18 in15.0 miSouth (180°)4.6 mphClear
1:00 AM32.0 °F30.2 °F93 %30.17 in15.0 miSSE (150°)4.6 mphClear
2:00 AM32.0 °F32.0 °F100 %30.16 in15.0 miESE (120°)5.8 mphClear
3:00 AM30.2 °F30.2 °F100 %30.13 in15.0 miSE (140°)5.8 mphClear
4:00 AM32.0 °F32.0 °F100 %30.13 in15.0 miSE (130°)5.8 mphClear
5:00 AM32.0 °F32.0 °F100 %30.11 in15.0 miESE (120°)9.2 mphClear
6:00 AM30.2 °F30.2 °F100 %30.11 in15.0 miSE (130°)6.9 mphClear
6:00 AM31.0 °F31.0 °F100 %30.11 in15.0 miSE (130°)6.9 mph
7:00 AM33.8 °F33.8 °F100 %30.09 in15.0 miSE (140°)8.1 mphPartly Cloudy
8:00 AM35.6 °F33.8 °F93 %30.07 in15.0 miSE (140°)11.5 mphPartly Cloudy
9:00 AM35.6 °F35.6 °F100 %30.05 in15.0 miSE (140°)11.5 mphMostly Cloudy
10:00 AM37.4 °F37.4 °F100 %30.03 in15.0 miSE (140°)13.8 mphMostly Cloudy
11:00 AM39.2 °F37.4 °F93 %30.01 in15.0 miSSE (150°)13.8 mphMostly Cloudy
12:00 PM41.0 °F39.2 °F93 %29.98 in15.0 miSSE (150°)16.1 mphOvercast
12:00 PM41.0 °F39.0 °F89 %29.99 in15.0 miSSE (160°)15.0 mphOvercast
1:00 PM41.0 °F37.4 °F87 %29.92 in15.0 miSSE (160°)17.3 mph23.0 mphOvercast
2:00 PM41.0 °F37.4 °F87 %29.92 in15.0 miSSE (160°)16.1 mph25.3 mphRainLight Rain
3:00 PM42.8 °F39.2 °F87 %29.89 in15.0 miSouth (170°)18.4 mph24.2 mphRainLight Rain
4:00 PM44.6 °F39.2 °F81 %29.84 in15.0 miSouth (170°)18.4 mph26.5 mphOvercast
5:00 PM46.4 °F39.2 °F76 %29.83 in15.0 miSouth (180°)12.7 mphOvercast
6:00 PM44.6 °F39.2 °F81 %29.82 in15.0 miSouth (190°)6.9 mphMostly Cloudy
6:00 PM44.0 °F40.0 °F79 %29.82 in15.0 miSouth (190°)6.9 mphPartly Cloudy
7:00 PM42.8 °F39.2 °F87 %29.81 in15.0 miSSW (200°)4.6 mphOvercast
8:00 PM41.0 °F37.4 °F87 %29.80 in15.0 miWSW (240°)5.8 mphMostly Cloudy
9:00 PM41.0 °F37.4 °F87 %29.78 in15.0 miSW (230°)4.6 mphOvercast
10:00 PM39.2 °F35.6 °F87 %29.77 in15.0 miWest (280°)5.8 mphOvercast
11:00 PM39.2 °F33.8 °F81 %29.77 in15.0 miWNW (300°)6.9 mphOvercast
11:55 PM35.6 °F32.0 °F87 %29.77 in15.0 miWNW (300°)3.5 mphOvercast
Hourly data recorded from CYZF, located miles away from Yellowknife, Northwest Territories




STORIES FROM OUR PARTNERS